Flag for U.S.A. Weather past 2 weeks in Tempe, Arizona, U.S.A.

Now
93 °F

Passing clouds.


Feels Like: 95 °F
Forecast: 85 / 107 °F
Wind: 5 mph from Southwest

Location: Phoenix Sky Harbor International Airport

Current Time: Aug 1, 2015 at 11:46:59 PM

Latest Report: Aug 1, 2015 at 10:51 PM


Visibility: 10 mi

Pressure: 29.72 "Hg

Humidity: 40%

Dew point: 65 °F

Location of TempeLocation

Historic Weather in Tempe — Graph

°F

Tempe temperature yesterday

Maximum temperature yesterday: 108 °F (at 2:51 PM)
Minimum temperature yesterday: 79 °F (at 5:51 PM)
Average temperature yesterday: 92 °F

Past Weeks' High & Low Weather Summary

 TemperatureHumidityPressure
High108 °F (Jul 25, 2:51 PM)88% (Jul 18, 9:51 PM)30.00 "Hg (Jul 18, 9:51 PM)
Low76 °F (Jul 18, 9:51 PM)5% (Jul 25, 5:51 PM)29.63 "Hg (Jul 21, 5:51 PM)
Average94 °F31%29.81 "Hg
* Reported Jul 17 10:51 PM — Aug 1 10:51 PM, Tempe, Weather by CustomWeather, © 2015

Note: Actual official high and low records may vary slightly from our data, if they occured in-between our weather recording intervals... More about our weather records

Advertising

Tempe weather history for previous 24 hours

 ConditionsComfort  
Time TempWeatherWind HumidityBarometerVisibility
10:51 PM
Sat, Aug 1
93 °FPassing clouds.5 mph40%29.72 "Hg10 mi
9:51 PM94 °FPassing clouds.5 mph38%29.72 "Hg10 mi
8:51 PM98 °FPassing clouds.6 mph28%29.71 "Hg10 mi
7:51 PM99 °FPassing clouds.8 mph29%29.69 "Hg10 mi
6:51 PM101 °FScattered clouds.6 mph25%29.67 "Hg10 mi
5:51 PM103 °FScattered clouds.8 mph21%29.67 "Hg10 mi
4:51 PM103 °FScattered clouds.9 mph24%29.69 "Hg10 mi
3:51 PM102 °FScattered clouds.7 mph26%29.71 "Hg10 mi
2:51 PM101 °FSunny.7 mph29%29.74 "Hg10 mi
1:51 PM100 °FScattered clouds.8 mph30%29.77 "Hg10 mi
12:51 PM98 °FScattered clouds.No wind33%29.81 "Hg10 mi
11:51 AM95 °FScattered clouds.No wind36%29.83 "Hg10 mi
10:51 AM94 °FScattered clouds.7 mph43%29.85 "Hg10 mi
9:51 AM90 °FScattered clouds.3 mph45%29.86 "Hg10 mi
8:51 AM86 °FScattered clouds.3 mph57%29.87 "Hg10 mi
7:51 AM83 °FPartly sunny.6 mph65%29.87 "Hg10 mi
6:51 AM83 °FPartly sunny.7 mph65%29.86 "Hg10 mi
5:51 AM83 °FPartly sunny.7 mph63%29.85 "Hg10 mi
4:51 AM83 °FOvercast.6 mph63%29.84 "Hg10 mi
3:51 AM82 °FOvercast.3 mph67%29.83 "Hg10 mi
2:51 AM82 °FOvercast.7 mph70%29.84 "Hg10 mi
1:51 AM82 °FOvercast.No wind70%29.85 "Hg10 mi
12:51 AM81 °FOvercast.3 mph74%29.87 "Hg10 mi
11:51 PM
Fri, Jul 31
81 °FOvercast.5 mph72%29.87 "Hg10 mi
Weather by CustomWeather, © 2015

See weather overviewHow to use our weather pages